Weather reports worldwide

Advertisment
Strathallan, United Kingdom (3144): temperature & dewpoint: 09.01.2021 17:00:00 - 15.01.2021 17:00:00 (GMT)Strathallan, United Kingdom (3144): temperature -20cm & temperature -100cm: 09.01.2021 17:00:00 - 15.01.2021 17:00:00 (GMT)Strathallan, United Kingdom (3144): wind speed & gusts: 09.01.2021 17:00:00 - 15.01.2021 17:00:00 (GMT)Strathallan, United Kingdom (3144): wind direction: 09.01.2021 17:00:00 - 15.01.2021 17:00:00 (GMT)Strathallan, United Kingdom (3144): reduced air pressure: 09.01.2021 17:00:00 - 15.01.2021 17:00:00 (GMT)Strathallan, United Kingdom (3144): visibility: 09.01.2021 17:00:00 - 15.01.2021 17:00:00 (GMT)Strathallan, United Kingdom (3144): precipitation: 09.01.2021 17:00:00 - 15.01.2021 17:00:00 (GMT)
Date & Time tt [°C] td [°C] tt -20cm [°C] tt -100cm [°C] ff [km/h] ff [kn] fx [km/h] fx [kn] dd ppp [hPa] vv [km] rr [mm]
15.01.2021 17:00:00 2,1 0,5 - - 8 4 - - S 1025,1 19 -
15.01.2021 16:00:00 1,0 0,6 - - 4 2 - - E 1025,5 4,7 0,6
15.01.2021 15:00:00 1,9 0,9 - - 2 1 - - NNW 1026,0 9 1,0
15.01.2021 14:00:00 1,9 0,8 - - 8 4 - - W 1027,0 14 1,8
15.01.2021 13:00:00 2,3 1,4 - - 8 4 - - SW 1027,8 13 1,4
15.01.2021 12:00:00 1,8 0,9 - - 2 1 - - WNW 1028,3 15 1,0
15.01.2021 11:00:00 1,7 1,0 - - 4 2 - - WNW 1028,7 11 1,0
15.01.2021 10:00:00 1,5 0,9 - - 5 3 - - W 1028,6 8 0,8
15.01.2021 09:00:00 1,5 0,9 1,5 4,5 11 6 - - W 1028,5 11 0,8
15.01.2021 08:00:00 1,6 0,9 - - 9 5 - - W 1028,1 21 0,6
15.01.2021 07:00:00 1,4 0,8 - - 9 5 - - W 1027,7 13 0,2
15.01.2021 06:00:00 1,1 0,6 - - 9 5 - - W 1027,6 13 0,0
15.01.2021 05:00:00 1,0 0,5 - - 2 1 - - W 1027,6 11 0,0
15.01.2021 04:00:00 1,4 1,0 - - 9 5 - - SW 1027,6 19 0,0
15.01.2021 03:00:00 1,4 1,4 - - 11 6 - - SW 1027,5 18 0,0
15.01.2021 02:00:00 -0,5 -0,6 - - 2 1 - - NNW 1027,3 0,3 0,0
15.01.2021 01:00:00 -0,6 -0,6 - - 2 1 - - ENE 1027,0 0,2 0,0
15.01.2021 00:00:00 -0,4 -0,4 - - 2 1 - - SSW 1027,1 1,6 0,0
14.01.2021 23:00:00 -0,7 -0,9 - - 2 1 - - NNW 1026,6 0,2 0,0
14.01.2021 22:00:00 -0,3 -0,4 - - 2 1 - - SW 1026,5 0,4 0,0
14.01.2021 21:00:00 0,1 -0,1 - - 0 0 - - N 1026,1 3,2 0,2
14.01.2021 20:00:00 0,2 0,0 - - 2 1 - - WSW 1025,6 4,7 0,2
14.01.2021 19:00:00 0,3 0,1 - - 2 1 - - WSW 1025,3 2,5 0,2
14.01.2021 18:00:00 0,4 0,2 - - 2 1 - - WSW 1024,8 3,6 0,4
14.01.2021 17:00:00 0,4 0,2 - - 2 1 - - WSW 1024,2 4,3 0,8
14.01.2021 16:00:00 0,6 0,4 - - 4 2 - - WSW 1023,5 5 0,6
14.01.2021 15:00:00 0,7 0,4 - - 4 2 - - WSW 1022,8 8 0,8
14.01.2021 14:00:00 0,8 0,4 - - 2 1 - - SW 1022,2 6 0,2
14.01.2021 13:00:00 1,0 0,5 - - 2 1 - - SSW 1021,7 8 0,2
14.01.2021 12:00:00 0,9 0,4 - - 4 2 - - ENE 1021,4 14 0,0
14.01.2021 11:00:00 0,7 0,5 - - 2 1 - - ESE 1020,8 4,5 0,0
14.01.2021 10:00:00 0,4 0,2 - - 2 1 - - ESE 1019,8 2,6 0,0
14.01.2021 09:00:00 0,2 0,2 1,5 4,7 8 4 - - ENE 1018,8 5 0,0
14.01.2021 08:00:00 0,2 0,1 - - 9 5 - - ENE 1018,0 2,3 0,0
14.01.2021 07:00:00 0,1 0,0 - - 5 3 - - ENE 1017,4 1,0 0,0
14.01.2021 06:00:00 0,1 0,0 - - 4 2 - - ENE 1017,1 1,0 0,0
14.01.2021 05:00:00 0,0 0,0 - - 2 1 - - E 1016,6 0,8 0,0
14.01.2021 04:00:00 0,1 0,0 - - 5 3 - - ENE 1016,3 1,3 0,0
14.01.2021 03:00:00 0,1 -0,1 - - 4 2 - - E 1016,2 1,1 0,0
14.01.2021 02:00:00 0,1 0,0 - - 4 2 - - E 1016,2 1,6 0,0
14.01.2021 01:00:00 0,1 0,0 - - 4 2 - - E 1016,3 1,8 0,0
14.01.2021 00:00:00 0,0 -0,1 - - 4 2 - - E 1016,7 0,7 0,0
13.01.2021 23:00:00 -0,1 -0,3 - - 2 1 - - ENE 1016,8 1,3 0,0
13.01.2021 22:00:00 -0,2 -0,4 - - 2 1 - - ENE 1016,7 1,2 0,0
13.01.2021 21:00:00 -0,3 -0,5 - - 0 0 - - N 1016,8 1,7 0,0
13.01.2021 20:00:00 -0,4 -0,6 - - 2 1 - - WNW 1016,8 2,6 0,0
13.01.2021 19:00:00 -0,4 -0,7 - - 2 1 - - SW 1016,9 1,9 0,0
13.01.2021 18:00:00 -0,4 -0,8 - - 2 1 - - E 1017,0 4,1 0,0
13.01.2021 17:00:00 -0,3 -0,9 - - 4 2 - - ENE 1017,2 1,6 0,0
13.01.2021 16:00:00 -0,2 -0,9 - - 2 1 - - SSW 1016,9 6 0,0
13.01.2021 15:00:00 -0,1 -1,1 - - 2 1 - - WSW 1017,1 6 0,0
13.01.2021 14:00:00 -0,2 -0,9 - - 4 2 - - NW 1017,2 30 0,0
13.01.2021 13:00:00 -0,5 -1,2 - - 2 1 - - W 1017,8 35 0,0
13.01.2021 12:00:00 -0,8 -1,3 - - 0 0 - - N 1018,1 30 0,0
13.01.2021 11:00:00 -1,3 -1,6 - - 2 1 - - WSW 1018,0 40 0,0
13.01.2021 10:00:00 -1,7 -2,0 - - 4 2 - - WNW 1017,9 35 0,0
13.01.2021 09:00:00 -2,5 -2,7 1,4 4,7 2 1 - - WNW 1017,6 30 0,0
13.01.2021 08:00:00 -2,8 -3,2 - - 4 2 - - SW 1017,9 27 0,0
13.01.2021 07:00:00 -2,3 -2,6 - - 2 1 - - SW 1017,3 45 0,0
13.01.2021 06:00:00 -1,9 -2,3 - - 2 1 - - WNW 1017,3 30 0,0
13.01.2021 05:00:00 -1,7 -2,1 - - 2 1 - - W 1017,6 45 0,0
13.01.2021 04:00:00 -2,0 -2,3 - - 4 2 - - W 1017,9 35 0,0
13.01.2021 03:00:00 -2,2 -2,6 - - 0 0 - - N 1017,8 26 0,0
13.01.2021 02:00:00 -1,8 -2,4 - - 2 1 - - N 1018,2 35 0,0
13.01.2021 01:00:00 -1,9 -2,5 - - 4 2 - - WNW 1018,6 40 0,0
13.01.2021 00:00:00 -2,0 -2,6 - - 4 2 - - WNW 1019,0 40 0,0
12.01.2021 23:00:00 -1,9 -2,4 - - 5 3 - - W 1018,9 35 0,0
12.01.2021 22:00:00 -2,5 -2,9 - - 2 1 - - W 1018,7 40 0,0
12.01.2021 21:00:00 -2,4 -2,9 - - 2 1 - - WSW 1018,4 30 0,0
12.01.2021 20:00:00 -2,0 -2,5 - - 4 2 - - SW 1018,4 50 0,0
12.01.2021 19:00:00 -2,2 -3,1 - - 4 2 - - SSW 1018,3 45 0,0
12.01.2021 18:00:00 -1,2 -2,6 - - 5 3 - - WSW 1018,2 45 0,0
12.01.2021 17:00:00 -0,7 -2,3 - - 5 3 - - WSW 1017,8 45 0,0
12.01.2021 16:00:00 0,9 -2,1 - - 9 5 - - WSW 1017,5 45 0,0
12.01.2021 15:00:00 3,2 -1,7 - - 9 5 - - WSW 1016,9 45 0,0
12.01.2021 14:00:00 4,8 -1,0 - - 9 5 - - SW 1016,6 50 0,0
12.01.2021 13:00:00 4,5 -1,0 - - 9 5 - - W 1016,6 45 0,0
12.01.2021 12:00:00 5,3 -0,4 - - 4 2 - - W 1016,2 35 0,0
12.01.2021 11:00:00 3,0 -1,6 - - 9 5 - - WSW 1015,9 45 0,0
12.01.2021 10:00:00 1,6 -2,3 - - 8 4 - - SW 1015,2 45 0,0
12.01.2021 09:00:00 -0,1 -2,4 1,4 4,7 4 2 - - NW 1014,4 50 0,0
12.01.2021 08:00:00 -0,2 -3,1 - - 4 2 - - SW 1013,4 50 0,0
12.01.2021 07:00:00 -0,8 -3,5 - - 4 2 - - SSE 1012,5 50 0,0
12.01.2021 06:00:00 -0,3 -3,3 - - 5 3 - - E 1011,7 40 0,0
12.01.2021 05:00:00 -0,6 -3,0 - - 2 1 - - NE 1011,1 50 0,0
12.01.2021 04:00:00 -0,4 -2,5 - - 4 2 - - SW 1010,5 50 0,0
12.01.2021 03:00:00 1,0 -2,2 - - 5 3 - - SSW 1009,6 50 0,0
12.01.2021 02:00:00 -0,8 -2,0 - - 5 3 - - W 1009,3 50 0,0
12.01.2021 01:00:00 -1,5 -2,5 - - 8 4 - - SSW 1008,4 50 0,0
12.01.2021 00:00:00 -0,2 -2,3 - - 4 2 - - SW 1008,2 50 0,0
11.01.2021 23:00:00 1,3 -2,0 - - 9 5 - - NE 1007,6 50 0,0
11.01.2021 22:00:00 2,7 -0,6 - - 15 8 - - N 1006,5 45 0,0
11.01.2021 21:00:00 2,0 1,6 - - 2 1 - - ENE 1005,7 50 0,0
11.01.2021 20:00:00 2,4 1,9 - - 8 4 - - E 1004,8 6 0,8
11.01.2021 19:00:00 3,2 2,6 - - 11 6 - - E 1004,3 6 2,0
11.01.2021 18:00:00 4,2 3,6 - - 15 8 - - E 1003,3 5 3,2
11.01.2021 17:00:00 7,9 5,0 - - 9 5 - - SW 1001,8 40 0,2
11.01.2021 16:00:00 9,0 6,8 - - 16 9 - - WSW 1000,7 50 0,0
11.01.2021 15:00:00 10,4 6,1 - - 24 13 - - WSW 1000,0 50 -
11.01.2021 14:00:00 10,0 7,3 - - 24 13 48 26 WSW 999,9 50 0,0
11.01.2021 13:00:00 10,3 7,9 - - 24 13 - - WSW 1000,0 50 0,0
11.01.2021 12:00:00 9,2 8,2 - - 26 14 48 26 SW 1000,4 50 0,0
11.01.2021 11:00:00 8,3 7,5 - - 31 17 52 28 SW 1000,8 40 0,0
11.01.2021 10:00:00 7,6 6,8 - - 34 18 59 32 SW 1001,8 6 0,0
11.01.2021 09:00:00 7,5 6,6 1,2 4,9 35 19 52 28 SW 1002,7 4,8 0,2
11.01.2021 08:00:00 7,1 6,3 - - 28 15 46 25 SW 1003,6 7 0,0
11.01.2021 07:00:00 7,0 5,9 - - 31 17 52 28 SW 1004,8 9 0,0
11.01.2021 06:00:00 7,3 6,0 - - 31 17 46 25 SW 1005,1 11 0,0
11.01.2021 05:00:00 7,6 6,4 - - 31 17 48 26 SW 1005,9 14 0,0
11.01.2021 04:00:00 7,5 6,3 - - 29 16 48 26 SW 1006,5 25 0,0
11.01.2021 03:00:00 7,1 5,4 - - 34 18 52 28 SW 1007,3 50 0,0
11.01.2021 02:00:00 6,8 5,3 - - 31 17 46 25 SW 1007,9 50 0,0
11.01.2021 01:00:00 6,7 5,6 - - 31 17 - - SW 1009,0 29 0,0
11.01.2021 00:00:00 6,5 5,5 - - 28 15 - - SW 1009,8 27 0,0
10.01.2021 23:00:00 6,6 5,8 - - 26 14 - - SW 1011,0 22 0,0
10.01.2021 22:00:00 6,6 5,7 - - 24 13 - - SW 1011,8 12 0,0
10.01.2021 21:00:00 6,6 5,8 - - 26 14 - - SW 1012,4 8 0,0
10.01.2021 20:00:00 6,7 5,7 - - 26 14 46 25 SW 1013,2 10 0,0
10.01.2021 19:00:00 6,2 5,4 - - 26 14 - - SW 1013,7 9 0,0
10.01.2021 18:00:00 6,1 5,2 - - 26 14 - - SW 1014,5 10 0,0
10.01.2021 17:00:00 5,8 5,0 - - 21 11 - - SW 1015,1 50 0,0
10.01.2021 16:00:00 5,8 5,3 - - 18 10 - - SW 1015,6 50 0,0
10.01.2021 15:00:00 5,5 5,1 - - 16 9 - - SW 1015,8 45 0,0
10.01.2021 14:00:00 4,7 4,4 - - 13 7 - - WSW 1016,6 4,3 0,0
10.01.2021 13:00:00 4,8 4,1 - - 15 8 - - WSW 1017,5 14 0,0
10.01.2021 12:00:00 4,0 3,0 - - 11 6 - - W 1018,7 50 0,0
10.01.2021 11:00:00 3,8 2,2 - - 9 5 - - WSW 1019,7 50 0,0
10.01.2021 10:00:00 3,6 1,9 - - 16 9 - - WSW 1020,3 50 0,0
10.01.2021 09:00:00 3,2 1,3 1,4 5,0 13 7 - - WSW 1020,3 50 0,0
10.01.2021 08:00:00 2,3 1,6 - - 5 3 - - W 1020,3 50 0,0
10.01.2021 07:00:00 2,1 1,8 - - 11 6 - - WSW 1020,5 50 0,2
10.01.2021 06:00:00 0,8 0,6 - - 2 1 - - SW 1020,5 0,1 0,0
10.01.2021 05:00:00 1,0 0,8 - - 5 3 - - WNW 1020,6 2,1 0,0
10.01.2021 04:00:00 1,7 1,4 - - 2 1 - - SW 1020,8 7 0,0
10.01.2021 03:00:00 2,0 1,5 - - 0 0 - - N 1021,0 22 0,0
10.01.2021 02:00:00 3,2 2,5 - - 5 3 - - E 1020,5 50 0,0
10.01.2021 01:00:00 5,3 4,7 - - 15 8 - - SW 1019,9 50 0,0
10.01.2021 00:00:00 5,1 4,3 - - 13 7 - - W 1019,8 50 0,0
09.01.2021 23:00:00 5,4 4,6 - - 16 9 - - WSW 1019,6 50 0,2
09.01.2021 22:00:00 5,1 4,3 - - 22 12 - - SW 1019,6 30 0,0
09.01.2021 21:00:00 5,0 4,2 - - 29 16 - - SW 1019,4 50 0,0
09.01.2021 20:00:00 4,4 3,9 - - 28 15 - - SW 1019,1 28 0,0
09.01.2021 19:00:00 3,9 3,2 - - 22 12 - - WSW 1019,4 26 0,0
09.01.2021 18:00:00 3,5 2,8 - - 15 8 - - SW 1019,6 7 0,0
09.01.2021 17:00:00 3,2 2,5 - - 21 11 - - WSW 1019,5 10 0,0

tt = temperature
td = dewpoint
tt -20cm = temperature -20cm
tt -100cm = temperature -100cm
ff = wind speed
fx = gusts
dd = wind direction
ppp = reduced air pressure
vv = visibility
rr = precipitation

Next stations